Location: Roland
(31.1349°N, 85.4372°W)
Time: 03:29:27
(UTC+00:00)

Courier 1B - Pass Details

Date: 19 April 2021
Orbit: 962 x 1209 km, 28.3° (Epoch: 07 May)

Event Time Altitude Azimuth Distance (km) Brightness Sun altitude
Rises 15:57:54 0° 209° (SSW) 3,809 10.6 59.1°
Reaches altitude 10° 16:01:42 10° 191° (S) 2,809 10.2 59.8°
Maximum altitude 16:05:54 17° 152° (SSE) 2,277 10.2 60.5°
Drops below altitude 10° 16:09:59 10° 113° (ESE) 2,727 10.5 61.2°
Sets 16:13:34 0° 94° (E) 3,652 10.8 61.8°
